sat.trackr.live / text

‹ back to catalog

STARLINK-33934

NORAD 64187 · 2025-113T

PAYLOAD ACTIVE UNKNOWN

§ Identity

Operator
Country
US
Launch date
2025-05-28
Launch site
AFETR
Launch vehicle
Mass (kg)
RCS (m²)

Purposes: comms

External: N2YO · Heavens-Above · Gunter

§ Orbital elements

Epoch: 2026-05-25T02:31:04.941984Z

Period
94.10 min
Inclination
53.1588°
Eccentricity
0.0001270
Mean motion
15.30216872 rev/d
Perigee alt
474.3 km
Apogee alt
476.0 km
Semi-major
6,853.3 km
B*
5.0014e-4
RAAN
96.2559°
Arg perigee
132.3906°
Mean anomaly
227.7203°
Rev number
5,672

§ Raw data

STARLINK-339341 64187U 25113T   26145.10491831  .00014490  00000+0  50014-3 0  99932 64187  53.1588  96.2559 0001270 132.3906 227.7203 15.30216872 56726

JSON: /api/v1/satellites/64187 · /tle

For live sub-satellite position, see the globe view (requires WebGL).

§ Visibility from observer

Set your observer location to see the next 7 days of passes ≥ 10°. The values pass through the URL so the page stays shareable.

No JS? Fill the form by hand. The geolocation button needs JavaScript.